FW2315 Weather Reports


time (UTC)temp
F
wind
direction
speed
knots
gust
knots
rain 1hr
in
rain 24hr
in
rain mn
in
humidity
%
barometer
mb
20260503053036 56 293 1.7 7.8 0.00 0.00 0.00 72 1020.9
20260503051530 55 287 0.9 1.7 0.00 0.00 0.00 74 1020.8
20260503050031 54 307 0.9 3.5 0.00 0.00 0.00 75 1020.9
20260503044543 53 326 0.9 4.3 0.00 0.00 0.00 75 1021.0
20260503043040 52 321 0.0 4.3 0.00 0.00 0.00 76 1020.8
20260503041526 52 16 0.0 3.5 0.00 0.00 0.00 76 1020.9
20260503040029 52 19 1.7 2.6 0.00 0.00 0.00 75 1020.8
20260503034523 53 342 0.9 3.5 0.00 0.00 0.00 75 1020.9
20260503033023 53 24 1.7 2.6 0.00 0.00 0.00 75 1020.9
20260503031526 53 294 1.7 2.6 0.00 0.00 0.00 75 1021.1
20260503030019 53 350 1.7 3.5 0.00 0.00 0.00 74 1021.1
20260503024517 53 355 0.9 2.6 0.00 0.00 0.00 74 1021.1
20260503023017 54 360 0.9 2.6 0.00 0.00 0.00 74 1021.1
20260503021516 54 355 0.0 1.7 0.00 0.00 0.00 74 1021.2
20260503020013 54 360 0.9 3.5 0.00 0.00 0.00 73 1021.2
20260503014512 55 14 2.6 3.5 0.00 0.00 0.00 71 1021.4
20260503013012 55 317 1.7 2.6 0.00 0.00 0.00 72 1021.5
20260503011507 55 36 0.9 2.6 0.00 0.00 0.00 73 1021.6
20260503010004 55 355 1.7 5.2 0.00 0.00 0.00 72 1021.7
20260503004505 56 327 2.6 5.2 0.00 0.00 0.00 70 1021.8
20260503003100 56 9 2.6 5.2 0.00 0.00 0.00 70 1022.0
20260503001558 56 13 3.5 5.2 0.00 0.00 0.00 71 1022.2
20260503000104 56 342 1.7 3.5 0.00 0.00 0.00 72 1022.3
20260502234602 56 355 1.7 4.3 0.00 0.00 0.00 71 1022.5
20260502233052 57 5 2.6 5.2 0.00 0.00 0.00 70 1022.5
20260502231550 57 5 2.6 5.2 0.00 0.00 0.00 68 1022.5
20260502230049 57 355 3.5 5.2 0.00 0.00 0.00 69 1022.5
20260502224549 58 360 2.6 7.0 0.00 0.00 0.00 69 1022.6
20260502223045 58 360 2.6 3.5 0.00 0.00 0.00 68 1022.6
20260502221543 58 335 1.7 4.3 0.00 0.00 0.00 69 1022.6
20260502220050 58 5 2.6 5.2 0.00 0.00 0.00 68 1022.5
20260502214541 59 21 1.7 3.5 0.00 0.00 0.00 67 1022.5
20260502213042 60 19 1.7 4.3 0.00 0.00 0.00 65 1022.3
20260502211540 60 40 2.6 4.3 0.00 0.00 0.00 65 1022.3
20260502210038 61 28 0.9 2.6 0.00 0.00 0.00 64 1022.1
20260502204541 61 360 0.9 2.6 0.00 0.00 0.00 62 1021.9
20260502203037 61 16 1.7 4.3 0.00 0.00 0.00 65 1021.9
20260502201545 62 5 2.6 3.5 0.00 0.00 0.00 63 1021.8
20260502200043 62 340 1.7 5.2 0.00 0.00 0.00 62 1021.8
20260502194539 63 298 1.7 3.5 0.00 0.00 0.00 60 1021.8
20260502193040 64 349 2.6 7.0 0.00 0.00 0.00 58 1021.5
20260502191536 64 316 1.7 5.2 0.00 0.00 0.00 61 1021.3
20260502190043 64 17 3.5 5.2 0.00 0.00 0.00 61 1021.1
20260502184533 64 337 1.7 4.3 0.00 0.00 0.00 62 1020.9
20260502183032 66 327 1.7 4.3 0.00 0.00 0.00 58 1020.7
20260502181634 67 360 4.3 9.6 0.00 0.00 0.00 57 1020.4
20260502163026 72 298 3.5 8.7 0.00 0.00 0.00 51 1020.1
20260502161525 73 313 3.5 7.8 0.00 0.00 0.00 51 1020.2
20260502151545 75 110 6.1 13.0 0.00 0.00 0.00 42 1020.6
20260502130107 73 161 3.5 9.6 0.00 0.00 0.00 45 1022.7
20260502123051 70 306 4.3 7.8 0.00 0.00 0.00 52 1023.1
20260502121548 69 241 0.9 5.2 0.00 0.00 0.00 54 1023.3
20260502114541 66 281 2.6 7.0 0.00 0.00 0.00 59 1023.8
20260502113048 65 294 2.6 7.0 0.00 0.00 0.00 61 1024.1
20260502111535 64 273 2.6 6.1 0.00 0.00 0.00 62 1024.6
20260502110035 63 272 2.6 7.0 0.00 0.00 0.00 63 1025.0
20260502104528 63 194 0.9 6.1 0.00 0.00 0.00 62 1025.3
20260502103026 62 140 0.9 5.2 0.00 0.00 0.00 61 1025.6
20260502101526 63 213 3.5 6.1 0.00 0.00 0.00 61 1025.8
20260502091515 62 234 2.6 6.1 0.00 0.00 0.00 67 1026.6
20260502080105 59 297 1.7 3.5 0.00 0.00 0.00 71 1027.3
20260502070104 56 248 1.7 3.5 0.00 0.00 0.00 74 1027.9
20260502064558 55 265 0.0 2.6 0.00 0.00 0.00 73 1028.0
20260502063051 55 258 0.0 2.6 0.00 0.00 0.00 74 1028.1
20260502061545 55 282 0.9 2.6 0.00 0.00 0.00 73 1028.0
20260502060043 54 299 0.9 2.6 0.00 0.00 0.00 74 1028.2
20260502054543 53 340 0.9 2.6 0.00 0.00 0.00 75 1028.3